Tracking 30157 objects as of 12-Feb-2025
HD Live streaming from Space Station
objects crossing your sky now

KL-BETA A

Track KL-BETA A now!
10-day predictions


NORAD ID: 49059
Int'l Code: 2021-070A
Perigee: 918.5 km
Apogee: 923.1 km
Inclination: 89.0 °
Period: 103.3 minutes
Semi major axis: 7291 km
RCS: Unknown
Launch date: August 4, 2021
Source: People's Republic of China (PRC)
Launch site: Taiyaun Space Center, China (TSC)
Your satellite tracking list
Your tracking list is empty




NASA's NSSDC Master Catalog

Two Line Element Set (TLE):
1 49059U 21070A   25043.64709569  .00000167  00000-0  11521-3 0  9994
2 49059  88.9817 272.1917 0003138 102.0327 258.1201 13.94276440179713
Source of the keplerian elements: AFSPC